Overview Statistics Trail Chart Weather Telemetry Raw packets
 

This is the latest recevied weather packets stored in our database for station/object 9M2ABD-1. If no packets are shown the sender has not sent any weather packets the latest 10 day(s).

<< 1 2 3 4 5 6 7 >>
Time Temp. Humidity Pressure Rain* Wind** Luminosity Snow
1788527130 32.78° C 56% 1012.2 hPa - - - -
1788525930 33.33° C 57% 1012 hPa - - - -
1788524730 33.33° C 56% 1011.7 hPa - - - -
1788523530 33.33° C 57% 1011.5 hPa - - - -
1788522330 33.33° C 57% 1011.3 hPa - - - -
1788521129 33.89° C 56% 1011.1 hPa - - - -
1788519929 33.89° C 55% 1010.7 hPa - - - -
1788518729 33.89° C 54% 1010.4 hPa - - - -
1788517529 33.89° C 55% 1010.1 hPa - - - -
1788516329 34.44° C 53% 1010 hPa - - - -
1788513929 34.44° C 54% 1009.7 hPa - - - -
1788512729 34.44° C 54% 1009.6 hPa - - - -
1788511529 34.44° C 54% 1009.8 hPa - - - -
1788510329 34.44° C 54% 1009.8 hPa - - - -
1788509129 34.44° C 53% 1009.9 hPa - - - -
1788507929 34.44° C 52% 1010.2 hPa - - - -
1788506729 34.44° C 50% 1010.2 hPa - - - -
1788505529 34.44° C 51% 1010.4 hPa - - - -
1788504329 34.44° C 54% 1010.5 hPa - - - -
1788503129 34.44° C 52% 1011 hPa - - - -
1788501934 33.89° C 56% 1011.3 hPa - - - -
1788498333 33.33° C 56% 1012.3 hPa - - - -
1788495933 32.78° C 61% 1012.9 hPa - - - -
1788494728 32.22° C 61% 1013.1 hPa - - - -
1788493528 32.22° C 62% 1013.2 hPa - - - -

* Rain since midnight (hover to see other rain measurements)
** Current wind speed in m/s (hover to see current wind gust speed)